Location: Colonia Mina de C?rbuni
(46.1667°N, 22.7167°E)
Time: 21:12:35
(UTC+00:00)

Tiros 1 - Pass Details

Date: 22 April 2024
Orbit: 624 x 657 km, 48.4° (Epoch: 20 May)

Event Time Altitude Azimuth Distance (km) Brightness Sun altitude
Rises 20:16:06 0° 194° (SSW) 2,935 - -24.3°
Reaches altitude 10° 20:19:13 10° 173° (S) 2,023 - -24.6°
Maximum altitude 20:22:01 16° 136° (SE) 1,666 - -24.8°
Drops below altitude 10° 20:24:48 10° 99° (E) 2,017 - -25.1°
Sets 20:27:54 0° 77° (ENE) 2,922 - -25.4°
